RH
39 40 29 30 29 32 31 36 40 32 30 33 24 22 24 25 24 24 23 26 27 28 30 32 33 30 30 26 22 20 18 12 12 10 4 4 3 3 3 3 4 5 5 7 9 9 10
52 44 36 37 37 38 36 34 35 40 41 33 32 30 24 24 25 26 26 30 32 33 33 36 38 35 33 27 24 22 18 15 12 12 8 4 4 3 2 3 3 4 6 6 8 10 10
94 97 73 54 57 46 45 42 32 31 38 44 39 36 32 26 29 28 29 33 36 37 36 37 39 41 35 29 25 25 19 16 14 13 12 6 5 4 3 2 2 3 4 5 6 8 11
42 49 73 85 78 56 53 53 44 38 39 44 48 46 40 38 28 32 34 38 40 42 45 40 42 42 40 33 30 25 20 17 17 14 13 12 7 6 6 3 3 2 3 4 6 7 9
56 53 51 53 66 92 88 63 50 56 45 36 38 61 50 37 43 46 47 36 40 43 49 53 45 43 42 36 30 26 22 18 18 16 14 14 14 8 6 5 4 3 2 3 6 6 7
79 64 61 51 58 73 75 90 71 53 46 50 35 79 82 69 42 40 55 53 50 52 54 61 52 43 43 38 33 28 26 20 19 20 18 15 17 13 8 6 5 4 4 3 4 6 7
81 84 62 53 75 81 85 100 97 80 54 64 39 43 91 89 90 86 82 68 73 66 73 72 57 44 39 42 41 31 27 26 20 20 19 17 16 19 12 7 6 5 4 4 4 6 6
82 100 93 83 79 88 93 100 98 80 67 55 51 32 62 76 60 90 90 97 89 90 91 86 62 50 42 45 48 39 30 29 24 21 21 21 18 17 18 10 7 6 5 4 4 4 6
85 83 98 88 89 73 81 100 100 100 95 78 64 48 36 56 55 55 82 97 97 95 100 97 74 61 50 44 51 52 37 30 28 24 23 23 23 19 18 18 8 6 5 4 4 4 5
81 73 61 62 64 86 84 77 100 77 99 89 64 83 57 73 64 66 61 80 98 99 97 99 95 85 70 54 54 67 50 36 30 26 26 25 26 24 20 18 18 7 6 6 5 4 5
83 79 63 74 78 73 77 74 84 90 99 96 82 90 84 77 76 66 63 67 92 92 93 100 100 98 90 74 52 77 66 42 34 28 24 29 28 27 24 18 19 14 7 6 6 5 5
80 69 66 64 73 81 79 82 90 94 95 94 100 100 88 72 59 51 49 64 82 95 97 95 99 100 100 95 64 67 76 59 39 34 28 25 30 29 28 23 18 18 15 8 7 6 6
98 93 81 78 86 92 90 85 95 95 84 95 79 75 99 70 73 78 61 49 85 88 90 85 100 100 100 100 77 71 84 80 58 37 32 26 28 30 28 30 25 21 20 17 9 8 7
100 100 100 100 98 97 100 89 89 92 93 94 100 93 97 100 99 77 78 72 70 70 75 65 98 100 100 100 96 74 85 86 71 47 36 34 30 34 30 32 31 24 20 20 20 10 9
100 100 100 100 100 100 100 100 100 100 94 99 100 100 100 100 100 100 86 80 83 65 63 51 83 90 91 100 100 83 84 86 85 57 43 39 34 33 33 32 34 30 28 23 22 25 15
100 100 100 100 97 100 100 100 100 100 100 99 100 100 100 100 100 100 100 98 70 70 62 49 59 85 90 100 100 96 90 89 86 76 63 47 42 35 38 38 37 41 37 35 28 25 27
100 100 100 100 100 100 100 100 100 100 100 100 100 100 100 100 100 100 100 100 100 93 85 71 55 68 77 93 100 100 97 92 88 94 82 64 50 48 43 39 43 45 45 43 38 33 29
100 100 100 100 100 100 100 100 100 100 100 100 100 100 100 100 100 100 100 100 100 100 98 79 67 71 86 77 100 100 100 100 100 94 97 80 60 60 56 49 48 47 50 47 45 42 38
99 100 96 99 100 99 100 100 100 100 100 98 95 100 100 100 100 100 100 100 100 100 100 100 79 70 87 74 87 100 100 100 100 100 100 93 83 66 69 73 65 60 55 57 52 52 50
60 72 90 92 83 92 93 100 100 100 100 100 90 93 100 100 100 100 100 94 100 96 100 100 100 85 84 85 82 92 100 100 100 100 100 100 98 88 80 79 94 76 66 72 76 59 60
58 58 58 58 69 76 91 97 100 88 98 100 100 100 92 95 100 98 88 93 99 100 96 100 100 98 98 77 95 92 94 99 100 100 100 100 100 95 77 97 88 98 85 77 82 77 69
79 72 64 60 69 77 76 71 72 68 64 69 88 100 100 100 100 87 72 84 98 99 88 100 100 100 100 100 88 85 98 98 100 100 100 100 100 100 99 69 100 98 100 89 85 98 80
87 84 73 73 82 83 80 74 59 66 75 66 64 58 52 59 64 64 91 100 81 81 93 86 89 99 100 100 94 93 84 84 100 100 100 100 94 100 100 95 78 100 94 98 94 90 95
86 76 68 75 80 69 71 75 79 73 58 57 62 62 51 51 58 52 49 47 80 100 100 93 79 77 93 95 85 82 88 84 81 97 100 100 100 100 100 100 96 66 91 100 100 98 97
72 71 64 72 76 72 68 78 69 80 75 74 63 54 60 58 62 66 66 71 70 52 54 82 100 98 75 75 79 95 100 100 96 86 100 98 100 100 100 100 100 100 67 84 100 100 99
100 100 100 100 100 99 99 99 100 100 100 83 86 82 72 47 56 83 74 78 87 90 71 56 46 51 94 99 84 76 100 93 99 100 90 98 100 100 100 88 100 100 97 97 79 90 100
97 93 93 96 100 100 95 98 95 95 100 92 94 81 83 50 67 68 74 94 98 98 76 59 61 41 42 42 51 89 94 100 100 100 100 96 80 93 100 100 97 86 99 100 89 87 90
77 77 70 67 65 68 72 65 64 64 65 58 77 86 68 52 76 86 62 85 100 100 89 52 59 53 56 40 41 50 97 89 94 100 94 94 98 100 100 100 100 100 93 85 96 99 90
44 43 39 34 35 38 41 41 36 36 30 30 30 30 35 31 33 34 53 85 89 100 97 80 67 68 70 65 47 39 47 48 54 93 100 99 93 91 100 100 100 100 100 100 92 92 97
Wind_Speed
13 12 9 12 15 18 16 16 17 16 16 17 17 17 19 21 23 24 24 27 30 34 37 40 44 51 56 61 65 71 78 80 78 71 57 44 32 27 30 37 43 54 68 78 85 85 85
16 14 15 16 19 20 21 17 21 22 20 19 18 20 20 20 21 24 26 29 32 35 39 41 45 51 55 59 64 71 77 80 79 77 67 52 38 31 27 26 35 42 53 67 79 86 87
18 21 20 22 24 24 22 23 24 23 24 24 24 23 24 21 23 24 28 32 35 36 39 42 45 51 56 60 64 69 74 77 80 80 74 62 48 34 28 25 25 33 43 54 69 80 87
26 24 23 25 26 25 25 23 21 23 25 28 29 28 26 28 26 28 32 33 36 37 39 43 46 51 54 60 64 68 72 74 79 81 78 71 59 46 31 26 21 23 32 43 55 71 81
31 30 31 30 31 30 29 27 26 21 28 25 31 32 30 29 30 33 34 35 37 40 40 43 45 48 52 57 62 68 71 75 77 81 82 80 76 60 45 30 24 21 24 34 44 58 71
32 35 33 37 34 31 33 33 28 26 30 27 32 33 32 33 34 33 35 36 38 40 41 43 43 47 49 55 60 66 69 74 76 79 83 83 84 73 56 42 30 21 16 24 36 47 60
36 38 39 36 36 34 35 34 31 30 29 31 29 33 32 32 35 35 34 36 39 41 42 40 41 44 47 53 58 64 68 71 74 75 78 81 82 82 70 55 38 25 16 14 24 37 48
38 37 38 37 37 36 38 37 35 33 32 32 34 32 32 33 34 34 35 38 36 39 40 39 39 42 45 50 56 60 65 68 71 73 75 79 81 82 80 65 48 33 21 13 14 25 37
43 41 43 44 42 40 39 40 37 37 39 34 37 33 35 35 33 35 36 37 36 36 38 38 38 41 43 48 53 57 61 64 68 71 72 76 79 80 81 79 60 42 29 19 11 15 28
49 51 48 48 45 43 42 43 44 43 42 42 41 38 37 34 37 35 35 38 38 38 37 38 39 39 41 45 49 53 56 61 63 67 70 71 73 77 77 79 73 53 37 26 15 10 16
56 55 55 50 49 49 51 51 48 46 44 43 44 41 38 37 38 38 37 40 38 38 38 40 42 40 40 44 45 49 53 56 58 62 65 66 69 71 74 75 76 66 48 36 24 14 8
61 62 59 55 54 55 56 56 53 50 47 46 44 45 45 43 42 41 40 43 39 38 40 42 41 42 41 43 42 46 48 52 53 55 60 62 64 67 70 72 72 73 63 45 36 22 8
63 63 64 61 59 59 59 58 57 57 55 53 53 51 49 49 47 50 43 44 40 40 38 42 42 41 40 41 41 43 45 48 49 50 51 58 60 62 66 68 70 70 72 63 44 35 19
59 60 62 63 62 61 63 63 61 62 61 58 58 54 53 50 46 46 44 44 43 44 43 46 42 40 40 41 41 39 42 43 46 45 46 50 54 57 61 62 64 66 67 67 63 44 34
64 62 61 60 61 63 61 63 63 64 64 61 61 59 55 53 50 47 48 48 51 51 49 47 47 43 41 40 41 39 37 40 41 41 42 44 47 50 53 56 58 61 63 65 65 63 49
68 67 65 64 66 64 64 66 65 66 65 60 59 61 58 57 51 53 50 50 51 52 51 49 51 46 43 39 38 38 34 37 37 36 39 39 42 43 46 48 52 54 55 57 59 60 61
70 69 69 67 65 67 70 70 69 67 67 66 61 59 58 60 60 54 54 52 48 48 50 52 50 51 47 41 38 36 34 37 35 33 35 36 36 37 39 42 44 47 50 49 50 53 55
76 75 74 74 72 71 72 71 72 69 71 71 68 62 63 63 60 59 59 56 55 50 50 51 52 52 49 44 40 38 38 38 35 34 33 33 32 32 32 35 37 40 42 43 44 45 46
79 79 79 77 73 73 74 75 74 73 77 77 73 70 67 68 65 65 59 56 56 58 54 51 51 50 51 50 41 42 40 37 35 35 33 32 31 30 29 29 31 33 35 35 37 38 39
70 76 79 77 81 82 79 77 74 75 75 77 76 74 74 74 73 69 68 64 64 64 61 61 53 51 50 50 50 44 43 41 37 36 35 33 32 30 28 28 27 28 29 30 31 30 30
68 68 67 66 63 72 75 79 75 79 79 76 77 74 76 77 77 77 76 69 69 69 65 62 62 62 56 54 50 51 46 42 42 39 36 34 35 31 28 28 27 25 26 27 26 27 25
69 70 71 71 68 64 67 67 71 74 74 77 82 80 77 78 79 83 80 73 74 74 70 69 65 63 64 61 55 52 52 44 42 41 36 36 35 34 34 25 28 26 26 26 25 25 25
78 76 77 77 74 72 71 72 73 74 74 72 73 71 78 75 76 77 77 81 82 80 76 72 74 72 68 68 63 59 54 53 47 44 42 37 37 36 38 34 26 29 26 27 27 24 25
81 80 81 82 82 81 78 77 78 79 82 78 77 82 81 71 74 71 74 78 79 81 81 76 78 76 75 73 70 67 64 59 56 52 49 43 40 36 38 40 34 29 29 29 30 28 25
81 81 82 84 82 83 84 86 87 91 92 92 89 85 86 81 78 73 73 72 71 72 75 78 80 84 80 72 71 68 69 65 60 57 57 52 47 42 42 42 41 36 32 30 33 33 32
89 88 92 94 93 93 92 95 97 99 102 101 97 95 94 90 77 83 80 77 78 78 79 75 74 73 77 78 76 67 68 70 63 62 62 57 53 52 50 48 47 44 42 40 36 35 35
104 105 105 107 108 108 106 109 109 108 109 108 102 106 105 100 85 89 83 81 83 85 83 81 79 75 75 73 68 71 72 69 69 66 63 64 60 61 60 53 50 50 49 48 44 41 42
116 117 116 115 115 116 118 118 118 117 116 114 111 115 113 105 99 100 94 86 86 91 90 86 85 79 76 73 67 65 71 73 75 75 73 69 65 65 66 65 56 54 54 54 50 48 48
109 109 110 107 104 107 109 108 108 110 107 108 106 111 111 111 99 98 99 99 92 97 101 94 87 84 82 79 73 69 66 63 69 77 79 77 72 68 70 69 69 64 59 57 56 54 52
Wind_Direction
285 307 292 313 332 335 331 332 327 326 327 334 329 321 319 319 320 320 319 324 328 330 333 336 338 339 342 346 351 354 356 358 2 0 357 348 329 304 277 261 249 242 237 232 231 228 225
270 282 284 301 307 313 325 322 324 322 320 315 321 321 314 313 313 315 316 323 326 329 333 339 340 340 342 347 352 355 359 360 4 6 3 357 349 335 307 276 254 244 239 233 229 227 224
281 279 284 285 300 302 311 316 324 325 311 317 312 312 316 309 313 313 315 317 322 326 330 336 339 340 342 347 352 357 360 3 5 10 10 6 360 356 332 306 269 251 240 234 229 226 224
280 281 286 292 295 290 298 298 301 316 321 317 309 305 308 312 307 309 313 317 320 323 327 331 338 339 341 347 352 356 359 4 6 11 13 14 9 2 358 331 309 272 247 235 230 225 223
277 279 284 291 291 293 290 295 293 300 317 317 315 308 303 304 307 311 314 312 316 321 323 328 334 338 341 345 351 355 358 1 7 9 15 16 16 11 5 360 334 302 262 238 229 225 221
275 279 283 291 287 288 291 288 289 295 304 300 313 306 305 304 302 303 308 311 314 319 321 326 330 336 340 344 350 354 357 360 6 10 13 17 17 15 12 9 360 336 281 246 231 224 220
275 277 280 294 284 285 289 285 284 285 302 295 302 303 303 304 304 306 308 307 312 316 322 325 327 334 339 343 348 353 356 359 3 7 12 17 19 18 16 13 9 359 334 266 241 229 224
270 268 274 283 280 282 284 284 283 285 292 291 292 299 296 300 306 307 308 311 312 317 321 322 326 331 337 341 346 351 355 357 360 5 11 13 18 19 19 18 13 9 357 335 264 236 225
266 268 267 277 277 278 278 281 283 288 289 289 294 293 298 292 298 307 309 312 314 318 321 320 323 328 334 337 343 349 353 356 359 2 7 12 15 17 20 21 19 15 11 359 327 255 230
264 269 272 276 274 272 273 276 279 281 286 287 290 283 292 292 291 301 306 309 310 313 314 318 321 324 329 334 339 345 351 354 356 360 5 8 13 17 19 23 23 21 19 13 1 320 247
265 267 275 269 268 270 274 277 273 277 279 279 285 278 285 289 289 295 299 303 307 310 314 318 319 321 322 330 335 342 346 352 355 358 2 6 10 15 17 22 25 26 23 21 16 9 286
264 267 269 269 266 268 270 272 269 271 273 276 277 278 282 283 284 292 299 296 300 306 310 311 313 317 320 325 330 337 342 348 353 356 359 3 7 11 16 19 24 28 29 25 24 18 14
261 263 268 265 263 264 265 267 267 268 271 273 275 277 275 279 281 287 291 291 293 296 303 309 310 313 315 320 325 330 338 343 348 352 358 360 4 9 12 17 21 26 30 31 29 28 20
255 257 259 260 260 262 262 265 265 269 270 271 271 272 276 279 278 282 284 288 294 297 302 303 303 307 310 314 318 323 332 337 342 347 354 0 1 5 9 13 17 22 28 32 34 34 33
251 255 258 260 262 263 264 264 265 266 270 270 270 270 271 273 275 278 279 284 289 292 295 298 297 300 306 309 313 319 326 332 337 343 349 354 359 2 6 9 14 20 23 28 34 38 38
255 256 259 261 261 258 259 262 264 266 265 266 272 273 269 268 271 276 278 280 282 287 292 292 291 295 297 303 306 313 318 324 329 335 342 347 353 357 2 7 10 13 20 25 29 35 40
254 256 256 258 261 261 261 260 261 262 264 265 262 262 265 266 265 267 276 279 280 282 284 287 289 291 293 297 299 303 309 315 319 325 333 340 346 351 356 1 5 9 14 20 26 29 33
254 258 259 259 260 263 263 259 261 263 264 267 262 264 265 266 267 268 269 274 277 278 281 282 285 288 288 291 296 297 302 307 310 316 323 330 337 343 348 354 359 3 7 13 18 25 28
258 260 262 262 261 264 264 263 262 262 263 264 264 263 264 265 268 270 267 271 275 278 278 278 281 285 287 287 286 290 296 300 301 305 311 317 324 331 336 342 349 354 359 6 11 16 23
259 259 259 262 262 261 262 261 264 264 263 263 264 263 267 267 268 270 270 270 270 272 276 276 278 280 284 290 289 284 288 292 294 297 300 305 310 318 323 328 333 342 347 352 359 7 15
262 262 261 261 263 261 262 260 264 265 263 265 268 266 264 264 267 268 269 270 273 270 269 271 272 275 277 280 284 285 283 285 287 289 291 297 299 305 311 314 319 322 331 336 342 349 357
261 259 260 259 259 261 261 261 262 263 262 267 263 263 261 265 265 267 269 269 269 270 269 265 266 270 275 278 276 278 281 279 280 286 285 286 291 295 296 303 306 309 310 317 323 326 334
260 261 260 259 262 262 263 263 263 261 263 264 268 271 265 264 266 267 267 267 266 268 268 266 267 268 269 273 275 275 274 275 274 277 280 279 283 285 288 291 297 295 299 301 304 309 314
261 261 259 257 259 261 263 263 266 268 269 268 271 266 268 268 270 269 265 265 264 263 266 269 268 267 267 269 273 273 273 271 272 271 274 276 276 275 279 282 285 287 287 289 291 291 295
264 265 263 264 265 266 267 268 269 271 272 273 274 271 272 270 270 272 269 270 270 268 267 265 265 266 267 267 268 269 268 268 267 268 269 271 272 270 271 273 275 279 277 279 278 282 283
261 263 264 265 264 266 267 269 270 271 271 272 272 273 273 268 270 269 267 267 273 276 273 272 266 268 263 268 269 264 264 266 266 267 268 268 268 271 270 269 269 271 274 274 274 275 277
261 260 260 261 262 263 264 264 265 266 266 267 269 269 268 267 268 268 267 267 269 273 274 272 271 269 267 268 268 265 259 260 264 265 264 266 266 269 272 270 266 269 270 273 274 272 273
265 265 265 265 264 263 262 264 264 264 264 264 264 264 265 266 262 264 265 264 267 270 272 271 268 272 272 269 267 265 261 258 261 263 265 263 263 264 267 269 267 266 268 271 272 273 274
264 264 263 264 262 262 261 260 260 261 262 262 263 263 262 262 261 259 257 260 262 266 268 269 266 266 268 271 270 261 259 262 262 259 261 261 262 261 263 264 265 266 266 267 270 271 272